Location: Austin
(30.3000°N, 97.7500°W)
Time: 01:57:42
(UTC-05:00)

Resurs 01 Rocket - Pass Details

Date: 11 June 2024
Orbit: 629 x 641 km, 97.8° (Epoch: 21 June)

Event Time Altitude Azimuth Distance (km) Brightness Sun altitude
Exits shadow 21:39:41 - 172° (S) 2,085 3.9 -13.0°
Reaches altitude 10° 21:39:52 10° 173° (S) 2,016 3.8 -13.0°
Maximum altitude 21:44:15 76° 258° (WSW) 658 1.7 -13.7°
Drops below altitude 10° 21:48:39 10° 345° (NNW) 2,021 5.0 -14.5°
Sets 21:50:52 0° 347° (NNW) 2,931 5.9 -14.9°
